Погода в Курье

Россия / Алтайский край     51°35′37″N   82°17′26″E
темп.,
°C
ветер,
м/с
пор.,
м/с
влажн.,
%
обл.,
%
осадки,
мм/ч
давл.,
гПа
погр.,
м
12 апреля, пн
пн1201:00−2св4119611 0.0 1035210
04:00−2св479550 0.0 1034149
07:00−2св489619 0.0 1035170
10:00+2св35799 0.0 1034218
13:00+6св34675 0.0 1033343
16:00+8ссв33666 0.0 1032378
19:00+6ссв23829 0.0 103250
22:00+3в118240 0.0 103210
13 апреля, вт
вт1301:00+2всв00735 0.0 103110
04:00+2ссв017773 0.0 103110
07:00+1сз1177100 0.0 103110
10:00+5сз2363100 0.0 1031294
13:00+3ссз2384100 0.1 1032127
16:00+2с3596100 0.0 1034464
19:00+3ссв4684100 0.0 1035676
22:00+2ссв248316 0.0 1037103
14 апреля, ср
ср1401:000ссв22885 0.0 103712
04:00−1ссв119224 0.0 103715
07:00−1ссв11955 0.0 103822
10:00+3ссв23665 0.0 1037456
13:00+7ссв33565 0.0 1035780
16:00+9с33515 0.0 1033850
19:00+8ссв12555 0.0 1031531
22:00+5юв2269100 0.0 103013
15 апреля, чт
чт1501:00+5ююв2268100 0.0 102914
04:00+4ююз11705 0.0 102810
07:00+3ююз22730 0.0 102710
10:00+8зсз11575 0.0 1026250
13:00+11ссз22440 0.0 1025747
16:00+13ссз32420 0.0 1023962
19:00+13с22480 0.0 1022848
22:00+9вюв22642 0.0 102211
16 апреля, пт
пт1601:00+7юв11682 0.0 102110
04:00+6ююв22720 0.0 102010
07:00+6ююв22760 0.0 102010
10:00+11юв11560 0.0 1019219
13:00+15с11420 0.0 10171059
16:00+17ссз22330 0.0 10161443
19:00+16с22380 0.0 1015256
22:00+11в22570 0.0 101515